Starlink 3658

operational
NORAD ID: 52107 Int'l Des: 2022-029 Owner: SPXS Country: US Constellation: starlink
LEOCIRCULAR

Über Starlink 3658

Beschreibung wird geladen...

Live-Position

3D-Globus wird geladen...

Nächste Überflüge

Höhenverlauf

Altitude vs Time

uPlot chart will show altitude changes over time

Zweizeiliger Elementsatz

1 52107U 22029V 25350.56131271 -.00001782 00000-0 -93867-4 0 9998
2 52107 53.2169 92.2984 0001207 86.5318 273.5812 15.08852224208238
Epoch: 16. Dez. 2025 • Age: 23 hours

Aktueller Status

Höhe 539.7 km
Geschwindigkeit 7.60 km/s
Subsatellitenpunkt 16.51°N, 17.58°W
Startdatum 19. März 2022
Alter 3.7 years
Typ internet

Technische Details

Klassifizierung Payload
Masse 297.00 kg
Trockenmasse 275.00 kg
Gesamtmasse 297.00 kg
Länge 0.20 m
Durchmesser 2.80 m
Spannweite 9.00 m
Form Box + pan
Hersteller SPXS
Bus-Typ Starlink
Phasenstatus In Orbit
Besitzer/Staat SPXS/US

Große Konstellationen

Loading constellations...